Location: *
(49.4547°N, 7.9131°E)
Time: 03:59:33
(UTC+00:00)

Cosmos 389 Rocket - Pass Details

Date: 22 September 2019
Orbit: 444 x 478 km, 81.1° (Epoch: 17 October)

Event Time Altitude Azimuth Distance (km) Brightness Sun altitude
Rises 18:55:06 0° 342° (NNW) 2,455 6.7 -14.9°
Reaches altitude 10° 18:57:13 10° 336° (NNW) 1,578 5.8 -15.2°
Maximum altitude 19:00:31 45° 263° (W) 621 3.5 -15.7°
Drops below altitude 10° 19:03:48 10° 190° (S) 1,568 5.0 -16.2°
Enters shadow 19:05:28 - 185° (S) 2,256 5.8 -16.5°
